SCP
0 0 0 0 0 0 0 0 0 0 0 0 0 0 0 0 0 0 0 0 0 0 0 0 0 0 0 0 0 0 0 0 0 0 0 0 0 0 0 0 0 0 0
1 1 1 0 0 0 0 0 0 0 0 0 0 0 0 0 0 0 0 0 0 0 0 0 0 0 0 0 0 0 0 0 0 0 0 0 0 0 0 0 0 0 0
1 1 0 0 0 0 0 0 0 0 0 0 0 0 0 0 0 0 0 0 0 0 0 0 0 0 0 0 0 0 0 0 0 0 0 0 0 0 0 0 0 0 0
1 1 0 0 0 0 0 0 0 0 0 0 0 0 0 1 0 0 0 0 0 0 0 0 0 0 0 0 0 0 0 0 0 0 0 0 0 0 0 0 0 0 0
1 1 0 0 1 1 0 0 0 0 0 0 0 1 1 1 1 0 0 0 0 0 0 0 0 0 0 0 0 0 0 0 0 0 0 0 0 0 0 0 0 0 0
1 1 1 1 1 0 0 0 0 0 0 1 1 1 1 1 1 0 0 0 0 0 0 0 0 0 0 0 0 0 0 0 0 0 0 0 0 0 0 0 0 0 0
1 1 1 1 1 1 0 1 0 1 1 1 2 1 0 0 0 0 0 0 0 0 0 0 0 0 0 0 0 0 0 0 0 0 0 0 0 0 0 0 0 0 0
2 2 2 1 1 0 1 3 1 0 1 2 1 1 1 0 0 0 0 0 0 0 0 0 0 0 0 0 0 0 0 0 0 0 0 0 0 0 0 0 0 0 0
3 3 2 2 2 1 1 3 2 2 1 2 1 2 2 1 0 0 0 0 0 0 0 0 0 0 0 0 0 0 0 0 0 0 0 0 0 0 0 0 0 0 0
3 3 3 2 3 1 1 3 2 2 3 2 2 1 1 1 0 0 0 0 0 0 0 0 0 0 0 0 0 0 0 0 0 0 0 0 0 0 0 0 0 0 0
3 3 3 2 2 1 2 4 4 3 2 2 3 2 1 0 0 0 0 0 0 0 0 0 0 0 0 0 0 0 0 0 0 0 0 0 0 0 0 0 0 0 0
5 4 3 3 3 2 4 3 3 4 4 3 4 1 1 1 0 0 0 0 0 0 0 0 0 0 0 0 0 0 0 0 0 0 0 0 0 0 0 0 0 0 0
4 4 4 5 3 4 2 3 4 3 4 3 2 1 1 0 0 0 0 0 0 0 0 0 0 0 0 0 0 0 0 0 0 0 0 0 0 0 0 0 0 0 0
3 4 5 4 3 3 2 5 5 5 4 4 2 0 0 0 0 0 0 0 0 0 0 0 0 0 0 0 0 0 0 0 0 0 0 0 0 0 0 0 0 0 0
4 3 3 3 3 2 2 5 7 6 4 1 0 0 0 0 0 0 0 0 0 0 0 0 0 0 0 0 0 0 0 0 0 0 0 0 0 0 0 0 0 0 0
2 2 4 3 2 3 3 6 4 1 0 0 0 0 0 0 0 0 0 0 0 0 0 0 0 0 0 0 0 0 0 0 0 0 0 0 0 0 0 0 0 0 0
2 3 2 4 2 3 4 1 0 0 0 0 0 0 0 0 0 0 0 0 0 0 0 0 0 0 0 0 0 0 0 0 0 0 0 0 0 0 0 0 0 0 0
2 2 2 2 2 0 0 0 0 0 0 0 0 0 0 0 0 0 0 0 0 0 0 0 0 0 0 0 0 0 0 0 0 0 0 0 0 0 0 0 0 0 0
2 2 3 0 0 0 0 0 0 0 0 0 0 0 0 0 -0 0 0 0 0 0 0 0 0 0 0 0 0 0 0 0 0 0 0 0 0 0 0 0 0 0 0
1 2 2 1 0 0 0 0 0 0 0 0 0 0 0 0 0 0 0 0 0 0 0 0 0 0 0 0 0 0 0 0 0 0 0 0 0 0 0 0 0 0 0
2 1 2 0 0 0 0 0 0 0 0 0 0 0 0 0 0 0 0 0 0 0 0 0 0 0 0 0 0 0 0 0 0 0 0 0 0 0 0 0 0 0 0
1 0 0 0 0 0 0 0 0 0 0 0 0 0 0 0 0 0 0 0 -0 0 0 0 0 0 0 0 0 0 0 0 0 0 0 0 0 0 0 0 0 0 -0
0 0 0 0 0 0 0 0 -0 0 0 0 0 0 0 0 0 0 0 -0 0 0 0 0 0 0 0 0 0 0 0 0 0 0 0 0 0 0 0 0 0 0 -0
0 0 0 0 0 0 0 0 0 0 0 0 0 0 0 0 0 0 -0 0 0 0 0 0 0 0 0 0 0 0 0 -0 0 0 0 0 0 0 0 0 0 0 0
0 0 0 0 0 0 0 0 0 0 0 0 0 0 0 0 0 0 -0 0 0 0 0 0 0 0 0 0 0 0 -0 -0 0 0 0 0 0 0 0 0 0 0 0
0 0 0 0 0 0 0 0 0 0 0 0 0 0 0 0 -0 -0 0 0 0 0 0 0 0 0 0 0 0 -0 -0 0 0 0 0 0 0 0 0 0 0 0 0
Wind_Speed_500mb
42 39 36 33 31 32 31 30 28 28 27 26 23 23 20 19 17 11 15 15 16 16 15 14 14 14 16 19 22 26 30 33 36 39 40 43 46 44 44 45 50 45 47
44 42 41 37 35 34 31 30 29 28 28 25 25 23 21 21 18 17 13 23 22 20 19 19 18 19 21 24 28 32 35 39 42 44 45 48 48 43 46 51 53 53 53
52 51 48 39 37 35 35 34 33 32 29 27 26 23 21 23 20 19 17 15 21 22 23 23 23 23 27 31 35 38 41 44 45 47 48 46 44 51 58 61 62 57 47
58 54 46 45 41 38 35 32 32 32 31 30 27 26 25 22 22 20 18 18 18 17 27 25 28 31 33 35 37 36 38 43 47 46 41 51 55 57 60 63 57 46 43
63 58 45 44 49 45 39 35 33 34 36 33 30 30 25 24 22 22 23 21 20 20 18 30 31 36 39 38 38 39 42 46 44 44 51 53 60 65 62 59 45 40 40
72 69 50 47 52 49 39 37 36 36 35 33 32 24 17 19 17 18 20 20 20 23 20 27 20 31 37 33 35 37 41 46 50 51 57 63 67 65 65 55 46 40 44
69 66 61 59 58 47 46 50 42 38 36 34 34 22 21 33 32 30 29 20 23 23 31 29 16 13 23 29 35 39 44 48 53 57 62 63 61 60 60 49 40 43 39
69 69 66 61 60 52 59 54 52 43 43 41 38 30 21 18 25 33 34 32 31 22 23 28 32 34 30 17 38 47 49 48 53 56 58 58 56 57 52 45 40 41 42
61 66 65 62 64 60 57 63 58 54 46 38 43 29 19 21 22 17 32 28 32 28 31 30 35 37 38 29 32 31 56 51 54 57 57 56 54 55 45 41 39 43 46
66 60 61 66 69 67 61 61 59 57 59 46 41 45 35 16 16 10 19 30 33 34 36 26 31 36 37 36 42 51 54 53 52 52 52 54 55 53 50 40 39 43 47
71 66 61 65 71 73 62 61 64 66 62 56 45 38 53 34 31 28 28 17 20 24 26 26 28 27 34 40 40 44 50 51 50 52 52 55 56 54 47 45 40 43 45
64 79 69 63 72 75 78 75 61 68 63 49 47 46 37 39 23 27 28 18 20 20 18 22 23 23 31 35 41 49 48 52 53 54 54 56 54 49 49 43 43 45 46
61 80 87 87 72 78 68 71 71 60 62 55 53 50 48 37 35 18 25 16 12 17 14 14 17 18 26 35 38 46 51 53 52 54 53 55 48 48 49 48 52 49 50
51 70 83 80 80 71 74 61 63 63 56 55 57 54 45 42 28 23 8 13 14 15 13 18 16 16 24 35 42 47 43 49 52 52 55 50 45 48 54 62 60 55 54
46 58 67 78 73 64 60 63 58 58 62 65 63 53 42 29 22 17 18 17 10 14 16 12 7 27 32 34 39 44 44 46 51 52 52 48 44 50 56 60 60 61 60
50 60 64 61 68 64 58 60 64 64 65 62 57 51 38 24 23 20 9 18 12 8 13 15 10 27 34 34 35 42 41 46 45 59 49 47 46 54 59 60 61 58 44
47 53 59 61 61 60 62 71 73 73 67 64 53 41 32 27 21 12 7 14 17 8 6 8 18 21 32 36 38 41 35 38 35 49 55 45 51 56 59 58 48 41 32
52 49 52 50 65 67 64 71 76 74 70 65 57 43 30 23 18 5 10 15 11 7 3 11 18 22 31 34 43 41 41 34 39 42 52 58 64 57 65 64 55 42 36
55 52 51 55 67 54 18 57 75 77 68 61 48 33 23 5 2 4 15 11 3 8 9 13 17 21 26 32 37 34 40 38 38 44 38 48 53 54 61 59 52 45 50
55 53 59 65 72 78 66 71 78 67 72 55 47 39 28 24 15 12 8 3 2 5 13 17 16 19 24 32 33 41 44 41 46 36 41 51 52 44 45 51 41 58 45
52 56 64 60 55 58 32 76 67 71 62 56 48 43 40 33 19 16 11 6 6 9 15 14 16 19 25 34 38 40 42 47 46 42 47 47 42 41 39 37 36 63 56
55 60 67 58 73 67 54 30 68 66 63 57 52 48 42 32 26 19 15 11 11 14 17 15 15 20 27 34 38 42 42 48 51 43 48 52 40 43 41 33 49 63 52
66 60 63 69 71 69 77 81 82 70 64 60 53 47 36 32 29 25 20 16 15 19 21 24 21 28 32 39 45 44 42 45 44 52 37 54 47 48 38 31 52 61 50
72 67 74 73 76 82 89 88 80 72 68 64 56 46 43 39 32 26 22 19 19 24 27 25 30 32 34 41 46 41 41 43 41 41 37 55 46 51 30 22 51 47 45
78 72 70 73 81 96 91 86 84 81 72 65 55 47 41 37 35 30 23 21 23 23 28 28 28 32 36 39 42 39 40 42 42 37 42 54 48 56 24 30 54 43 47
68 72 77 88 96 102 94 88 83 76 74 69 61 51 42 37 36 27 24 22 21 24 19 20 23 28 31 35 45 35 35 38 41 42 47 47 41 47 30 37 50 54 52
Wind_Direction_500mb
207 204 208 206 212 209 212 210 207 212 209 207 204 206 213 218 221 226 254 264 276 271 274 279 286 298 307 314 307 306 305 305 309 312 316 319 322 325 325 323 324 319 318
212 209 207 207 209 210 210 211 210 209 205 209 211 215 217 225 217 225 244 280 275 264 267 275 280 292 301 306 302 303 301 299 302 308 314 316 320 321 313 308 310 308 303
215 214 215 211 214 212 206 206 207 205 207 212 213 223 222 217 222 223 229 243 279 262 268 276 280 287 293 299 300 298 300 299 301 305 308 312 307 305 308 310 312 313 310
216 223 216 214 211 208 212 212 213 207 210 214 219 222 225 223 222 233 240 246 249 263 289 275 275 281 288 292 292 291 296 284 290 296 296 296 298 303 305 308 312 313 313
223 224 216 214 210 207 208 210 212 207 211 211 218 228 212 228 227 240 238 254 257 250 263 280 278 279 284 284 282 281 275 278 283 287 293 297 301 308 313 313 312 311 300
230 231 221 218 218 217 210 207 212 215 211 215 219 220 206 217 226 232 246 256 246 255 267 259 282 286 289 289 290 287 279 276 286 293 298 300 306 309 305 308 306 304 301
225 228 227 229 223 214 208 214 212 212 212 212 209 215 228 241 243 243 250 243 258 265 267 269 256 255 302 308 293 289 287 289 293 297 297 301 305 302 303 306 300 305 313
227 225 225 226 227 218 222 217 211 206 216 217 211 228 218 231 237 243 251 254 255 259 271 270 272 279 279 292 295 302 298 305 303 302 304 306 306 305 305 306 301 309 315
221 220 222 220 229 220 220 221 218 203 215 220 213 222 228 237 197 242 249 242 256 259 265 274 278 284 290 297 304 303 312 314 312 312 313 314 310 306 307 309 308 302 305
220 220 220 222 229 227 217 222 220 212 207 219 225 228 231 238 225 225 248 252 259 262 265 266 283 292 296 302 306 310 320 320 316 316 316 311 313 312 308 306 306 299 300
232 219 218 222 225 227 216 211 211 214 221 215 218 226 230 244 247 233 264 245 257 254 267 275 275 293 305 310 313 311 321 315 319 321 319 319 321 314 313 317 312 306 301
235 224 218 220 223 225 224 220 214 215 214 224 214 223 228 229 257 253 253 262 255 251 261 276 292 294 304 313 319 324 321 320 326 324 328 324 318 316 326 319 314 310 306
230 230 223 222 220 225 221 220 218 217 223 225 226 229 234 237 229 238 234 249 262 251 282 281 283 298 312 318 322 323 323 333 326 326 330 323 319 326 322 318 315 313 306
232 233 225 220 222 221 221 217 215 220 220 226 228 229 229 234 229 235 226 253 263 263 269 253 292 303 320 324 323 330 331 323 328 329 328 329 325 326 316 321 311 311 312
226 229 217 218 219 215 214 212 210 215 218 220 224 226 218 226 228 237 262 273 272 283 283 298 289 312 328 325 322 334 332 322 325 336 335 334 325 316 322 314 312 313 311
225 219 220 219 218 213 211 206 206 212 216 217 219 214 211 213 227 237 253 294 288 269 281 271 316 319 325 323 328 333 333 334 333 324 341 336 323 325 320 316 315 315 316
230 226 224 219 213 209 202 206 210 215 213 214 200 197 185 190 232 267 330 313 298 302 285 319 344 322 330 332 334 335 340 337 327 322 335 330 324 332 334 335 334 327 332
238 231 225 217 201 196 201 214 212 214 215 202 197 184 177 201 219 58 359 284 300 303 324 354 326 336 334 342 336 344 336 335 332 322 338 341 337 338 345 347 340 339 333
234 228 220 201 191 187 233 235 227 214 199 195 183 180 172 132 302 74 259 251 262 325 353 5 356 343 343 336 342 338 338 338 337 343 333 340 336 342 346 338 338 332 324
235 229 211 215 218 225 231 252 201 199 182 174 171 164 171 175 146 189 205 183 57 9 15 22 2 352 345 342 343 341 341 340 343 347 341 339 342 342 338 332 332 336 334
230 228 222 218 210 204 215 198 187 175 166 159 158 147 151 142 160 184 160 133 84 47 37 26 8 357 347 351 351 343 341 339 350 344 340 342 340 340 337 337 331 339 338
224 222 222 225 204 206 195 215 194 176 162 155 153 143 131 144 156 154 140 113 76 56 47 51 16 3 352 353 347 347 340 347 349 347 335 342 345 344 343 338 330 336 341
212 211 210 219 209 199 192 183 177 162 155 150 140 132 132 144 141 134 121 100 77 58 46 41 27 14 7 356 357 352 348 348 341 342 335 349 349 344 345 335 335 339 346
203 203 195 195 193 177 166 158 160 152 144 136 131 132 141 138 132 117 104 88 69 55 45 42 28 20 12 5 1 355 346 344 347 352 349 351 345 347 352 332 334 342 353
188 190 189 184 171 156 162 159 156 150 138 132 130 130 130 130 120 107 96 81 62 46 39 34 27 20 16 12 4 2 352 356 351 2 344 354 345 343 352 336 0 360 4
195 178 169 167 162 160 162 159 153 141 135 131 129 128 125 118 107 103 97 82 68 56 44 30 15 10 10 358 356 354 351 353 358 358 342 353 350 354 344 352 1 9 11
Wind_Speed_850mb
42 39 36 33 31 32 31 30 28 28 27 26 23 23 20 19 17 11 15 15 16 16 15 14 14 14 16 19 22 26 30 33 36 39 40 43 46 44 44 45 50 45 47
44 42 41 37 35 34 31 30 29 28 28 25 25 23 21 21 18 17 13 23 22 20 19 19 18 19 21 24 28 32 35 39 42 44 45 48 48 43 46 51 53 53 53
52 51 48 39 37 35 35 34 33 32 29 27 26 23 21 23 20 19 17 15 21 22 23 23 23 23 27 31 35 38 41 44 45 47 48 46 44 51 58 61 62 57 47
58 54 46 45 41 38 35 32 32 32 31 30 27 26 25 22 22 20 18 18 18 17 27 25 28 31 33 35 37 36 38 43 47 46 41 51 55 57 60 63 57 46 43
63 58 45 44 49 45 39 35 33 34 36 33 30 30 25 24 22 22 23 21 20 20 18 30 31 36 39 38 38 39 42 46 44 44 51 53 60 65 62 59 45 40 40
72 69 50 47 52 49 39 37 36 36 35 33 32 24 17 19 17 18 20 20 20 23 20 27 20 31 37 33 35 37 41 46 50 51 57 63 67 65 65 55 46 40 44
69 66 61 59 58 47 46 50 42 38 36 34 34 22 21 33 32 30 29 20 23 23 31 29 16 13 23 29 35 39 44 48 53 57 62 63 61 60 60 49 40 43 39
69 69 66 61 60 52 59 54 52 43 43 41 38 30 21 18 25 33 34 32 31 22 23 28 32 34 30 17 38 47 49 48 53 56 58 58 56 57 52 45 40 41 42
61 66 65 62 64 60 57 63 58 54 46 38 43 29 19 21 22 17 32 28 32 28 31 30 35 37 38 29 32 31 56 51 54 57 57 56 54 55 45 41 39 43 46
66 60 61 66 69 67 61 61 59 57 59 46 41 45 35 16 16 10 19 30 33 34 36 26 31 36 37 36 42 51 54 53 52 52 52 54 55 53 50 40 39 43 47
71 66 61 65 71 73 62 61 64 66 62 56 45 38 53 34 31 28 28 17 20 24 26 26 28 27 34 40 40 44 50 51 50 52 52 55 56 54 47 45 40 43 45
64 79 69 63 72 75 78 75 61 68 63 49 47 46 37 39 23 27 28 18 20 20 18 22 23 23 31 35 41 49 48 52 53 54 54 56 54 49 49 43 43 45 46
61 80 87 87 72 78 68 71 71 60 62 55 53 50 48 37 35 18 25 16 12 17 14 14 17 18 26 35 38 46 51 53 52 54 53 55 48 48 49 48 52 49 50
51 70 83 80 80 71 74 61 63 63 56 55 57 54 45 42 28 23 8 13 14 15 13 18 16 16 24 35 42 47 43 49 52 52 55 50 45 48 54 62 60 55 54
46 58 67 78 73 64 60 63 58 58 62 65 63 53 42 29 22 17 18 17 10 14 16 12 7 27 32 34 39 44 44 46 51 52 52 48 44 50 56 60 60 61 60
50 60 64 61 68 64 58 60 64 64 65 62 57 51 38 24 23 20 9 18 12 8 13 15 10 27 34 34 35 42 41 46 45 59 49 47 46 54 59 60 61 58 44
47 53 59 61 61 60 62 71 73 73 67 64 53 41 32 27 21 12 7 14 17 8 6 8 18 21 32 36 38 41 35 38 35 49 55 45 51 56 59 58 48 41 32
52 49 52 50 65 67 64 71 76 74 70 65 57 43 30 23 18 5 10 15 11 7 3 11 18 22 31 34 43 41 41 34 39 42 52 58 64 57 65 64 55 42 36
55 52 51 55 67 54 18 57 75 77 68 61 48 33 23 5 2 4 15 11 3 8 9 13 17 21 26 32 37 34 40 38 38 44 38 48 53 54 61 59 52 45 50
55 53 59 65 72 78 66 71 78 67 72 55 47 39 28 24 15 12 8 3 2 5 13 17 16 19 24 32 33 41 44 41 46 36 41 51 52 44 45 51 41 58 45
52 56 64 60 55 58 32 76 67 71 62 56 48 43 40 33 19 16 11 6 6 9 15 14 16 19 25 34 38 40 42 47 46 42 47 47 42 41 39 37 36 63 56
55 60 67 58 73 67 54 30 68 66 63 57 52 48 42 32 26 19 15 11 11 14 17 15 15 20 27 34 38 42 42 48 51 43 48 52 40 43 41 33 49 63 52
66 60 63 69 71 69 77 81 82 70 64 60 53 47 36 32 29 25 20 16 15 19 21 24 21 28 32 39 45 44 42 45 44 52 37 54 47 48 38 31 52 61 50
72 67 74 73 76 82 89 88 80 72 68 64 56 46 43 39 32 26 22 19 19 24 27 25 30 32 34 41 46 41 41 43 41 41 37 55 46 51 30 22 51 47 45
78 72 70 73 81 96 91 86 84 81 72 65 55 47 41 37 35 30 23 21 23 23 28 28 28 32 36 39 42 39 40 42 42 37 42 54 48 56 24 30 54 43 47
68 72 77 88 96 102 94 88 83 76 74 69 61 51 42 37 36 27 24 22 21 24 19 20 23 28 31 35 45 35 35 38 41 42 47 47 41 47 30 37 50 54 52
Wind_Direction_850mb
207 204 208 206 212 209 212 210 207 212 209 207 204 206 213 218 221 226 254 264 276 271 274 279 286 298 307 314 307 306 305 305 309 312 316 319 322 325 325 323 324 319 318
212 209 207 207 209 210 210 211 210 209 205 209 211 215 217 225 217 225 244 280 275 264 267 275 280 292 301 306 302 303 301 299 302 308 314 316 320 321 313 308 310 308 303
215 214 215 211 214 212 206 206 207 205 207 212 213 223 222 217 222 223 229 243 279 262 268 276 280 287 293 299 300 298 300 299 301 305 308 312 307 305 308 310 312 313 310
216 223 216 214 211 208 212 212 213 207 210 214 219 222 225 223 222 233 240 246 249 263 289 275 275 281 288 292 292 291 296 284 290 296 296 296 298 303 305 308 312 313 313
223 224 216 214 210 207 208 210 212 207 211 211 218 228 212 228 227 240 238 254 257 250 263 280 278 279 284 284 282 281 275 278 283 287 293 297 301 308 313 313 312 311 300
230 231 221 218 218 217 210 207 212 215 211 215 219 220 206 217 226 232 246 256 246 255 267 259 282 286 289 289 290 287 279 276 286 293 298 300 306 309 305 308 306 304 301
225 228 227 229 223 214 208 214 212 212 212 212 209 215 228 241 243 243 250 243 258 265 267 269 256 255 302 308 293 289 287 289 293 297 297 301 305 302 303 306 300 305 313
227 225 225 226 227 218 222 217 211 206 216 217 211 228 218 231 237 243 251 254 255 259 271 270 272 279 279 292 295 302 298 305 303 302 304 306 306 305 305 306 301 309 315
221 220 222 220 229 220 220 221 218 203 215 220 213 222 228 237 197 242 249 242 256 259 265 274 278 284 290 297 304 303 312 314 312 312 313 314 310 306 307 309 308 302 305
220 220 220 222 229 227 217 222 220 212 207 219 225 228 231 238 225 225 248 252 259 262 265 266 283 292 296 302 306 310 320 320 316 316 316 311 313 312 308 306 306 299 300
232 219 218 222 225 227 216 211 211 214 221 215 218 226 230 244 247 233 264 245 257 254 267 275 275 293 305 310 313 311 321 315 319 321 319 319 321 314 313 317 312 306 301
235 224 218 220 223 225 224 220 214 215 214 224 214 223 228 229 257 253 253 262 255 251 261 276 292 294 304 313 319 324 321 320 326 324 328 324 318 316 326 319 314 310 306
230 230 223 222 220 225 221 220 218 217 223 225 226 229 234 237 229 238 234 249 262 251 282 281 283 298 312 318 322 323 323 333 326 326 330 323 319 326 322 318 315 313 306
232 233 225 220 222 221 221 217 215 220 220 226 228 229 229 234 229 235 226 253 263 263 269 253 292 303 320 324 323 330 331 323 328 329 328 329 325 326 316 321 311 311 312
226 229 217 218 219 215 214 212 210 215 218 220 224 226 218 226 228 237 262 273 272 283 283 298 289 312 328 325 322 334 332 322 325 336 335 334 325 316 322 314 312 313 311
225 219 220 219 218 213 211 206 206 212 216 217 219 214 211 213 227 237 253 294 288 269 281 271 316 319 325 323 328 333 333 334 333 324 341 336 323 325 320 316 315 315 316
230 226 224 219 213 209 202 206 210 215 213 214 200 197 185 190 232 267 330 313 298 302 285 319 344 322 330 332 334 335 340 337 327 322 335 330 324 332 334 335 334 327 332
238 231 225 217 201 196 201 214 212 214 215 202 197 184 177 201 219 58 359 284 300 303 324 354 326 336 334 342 336 344 336 335 332 322 338 341 337 338 345 347 340 339 333
234 228 220 201 191 187 233 235 227 214 199 195 183 180 172 132 302 74 259 251 262 325 353 5 356 343 343 336 342 338 338 338 337 343 333 340 336 342 346 338 338 332 324
235 229 211 215 218 225 231 252 201 199 182 174 171 164 171 175 146 189 205 183 57 9 15 22 2 352 345 342 343 341 341 340 343 347 341 339 342 342 338 332 332 336 334
230 228 222 218 210 204 215 198 187 175 166 159 158 147 151 142 160 184 160 133 84 47 37 26 8 357 347 351 351 343 341 339 350 344 340 342 340 340 337 337 331 339 338
224 222 222 225 204 206 195 215 194 176 162 155 153 143 131 144 156 154 140 113 76 56 47 51 16 3 352 353 347 347 340 347 349 347 335 342 345 344 343 338 330 336 341
212 211 210 219 209 199 192 183 177 162 155 150 140 132 132 144 141 134 121 100 77 58 46 41 27 14 7 356 357 352 348 348 341 342 335 349 349 344 345 335 335 339 346
203 203 195 195 193 177 166 158 160 152 144 136 131 132 141 138 132 117 104 88 69 55 45 42 28 20 12 5 1 355 346 344 347 352 349 351 345 347 352 332 334 342 353
188 190 189 184 171 156 162 159 156 150 138 132 130 130 130 130 120 107 96 81 62 46 39 34 27 20 16 12 4 2 352 356 351 2 344 354 345 343 352 336 0 360 4
195 178 169 167 162 160 162 159 153 141 135 131 129 128 125 118 107 103 97 82 68 56 44 30 15 10 10 358 356 354 351 353 358 358 342 353 350 354 344 352 1 9 11